CAPE
911 1023 1206 1291 1434 1527 1460 1361 1284 1323 1141 1126 1154 979 685 540 634 720 723 854 838 916 834 771 697 627 594 612 658 634 574 570
904 986 1188 1318 1306 1443 1459 1431 1365 1280 1056 957 946 700 448 265 203 404 588 637 684 824 740 800 729 603 569 556 576 535 423 435
828 935 1175 1263 1281 1373 1469 1473 1444 1227 989 823 679 420 264 86 3 210 427 418 482 581 665 821 680 616 648 557 506 427 410 372
685 1049 1120 1249 1189 1352 1356 1357 1430 1343 979 729 455 191 63 0 0 39 191 238 400 323 469 606 580 579 571 550 465 351 369 394
887 1137 1078 1417 1280 1219 1227 1345 1356 1359 1154 739 506 279 57 0 0 7 20 108 310 355 403 550 548 444 358 383 368 294 345 407
611 1096 1128 1268 1123 1186 1173 1218 1291 1656 1233 891 552 284 0 0 0 0 0 21 506 296 340 425 411 339 225 331 313 288 295 346
1142 746 1166 1429 1195 1159 989 1065 999 1304 1486 996 651 385 0 0 0 0 0 10 183 230 315 364 384 320 233 241 286 297 244 210
1473 1237 811 1037 1087 976 847 908 863 1634 1392 980 759 457 0 4 0 0 0 0 33 146 514 346 317 311 245 196 251 189 143 144
1390 1566 1274 964 979 805 843 759 847 1676 1132 978 851 501 46 20 35 4 0 0 33 262 249 83 134 183 202 148 110 81 88 91
1368 1531 1434 1191 909 758 704 751 670 1407 950 1354 819 621 325 80 112 32 50 5 53 168 32 40 67 115 81 108 237 56 64 42
754 1733 1549 1509 1265 999 786 663 937 1110 1346 1502 999 732 605 271 146 150 77 20 21 16 8 18 25 60 70 50 69 53 67 39
4 1716 1757 1624 1667 1448 1264 733 807 1017 1263 1494 1427 941 717 601 348 358 132 114 88 30 29 1 6 26 47 44 26 44 66 39
0 1565 1960 1928 1911 1766 1634 1256 855 976 965 1160 1222 1510 1021 814 639 477 412 205 305 81 49 8 0 5 18 18 6 0 18 17
0 906 1951 2119 2046 1906 1865 1773 1229 995 877 992 1089 1381 1236 860 853 713 577 313 405 330 127 40 10 0 2 6 0 1 1 2
0 0 1530 2154 2178 2109 1982 1894 1562 1318 1199 1117 1405 1332 1110 855 963 862 742 571 590 465 288 162 76 0 1 13 8 0 1 0
0 0 111 1819 2171 2121 1873 1830 1660 1470 1466 1369 1620 1492 970 1090 1157 1046 942 861 778 579 413 285 173 30 11 21 16 5 0 0
0 0 0 735 2065 2095 1896 1781 1708 1642 1597 1461 1496 1516 1190 1462 1511 1434 1200 1077 630 534 498 312 219 104 42 31 23 58 10 6
0 0 0 614 1930 2116 1938 1807 1720 1681 1625 1608 2150 1995 1498 1831 1745 1662 1344 1110 1145 729 423 337 289 155 131 57 67 103 10 17
0 0 1 811 1852 2199 2043 1851 1743 1645 1616 1548 1915 1841 1310 1678 1515 1583 1131 1062 957 741 645 658 359 135 107 65 97 73 49 38
424 639 785 1204 2038 2239 2107 1902 1817 1699 1579 1454 1187 1132 1243 1574 1611 1595 1239 698 918 783 1011 868 593 545 68 89 112 94 71 82
CIN
-469 -401 -356 -319 -271 -240 -240 -233 -207 -147 -139 -100 -61 -55 -70 -74 -57 -40 -41 -40 -41 -37 -51 -46 -65 -59 -39 -32 -35 -32 -32 -32
-478 -417 -344 -288 -297 -275 -251 -247 -221 -171 -169 -129 -82 -87 -97 -107 -121 -68 -40 -38 -40 -41 -52 -22 -31 -40 -69 -29 -47 -44 -52 -61
-508 -446 -360 -334 -308 -278 -242 -247 -224 -211 -188 -163 -140 -145 -137 -172 -226 -109 -47 -55 -37 -38 -42 -18 -31 -30 -41 -52 -50 -42 -41 -46
-462 -407 -344 -340 -331 -276 -266 -265 -229 -211 -219 -203 -204 -184 -229 -0 0 -216 -87 -70 -44 -49 -39 -30 -41 -42 -51 -48 -45 -63 -44 -47
-361 -273 -304 -269 -305 -295 -303 -271 -240 -208 -206 -205 -208 -204 -247 0 0 -154 -193 -94 -31 -27 -28 -22 -21 -41 -72 -84 -69 -66 -56 -44
-428 -301 -277 -233 -313 -312 -303 -308 -266 -174 -213 -213 -200 -211 0 0 0 0 0 -177 -19 -35 -42 -34 -34 -41 -85 -64 -56 -63 -48 -41
-270 -387 -263 -197 -264 -284 -308 -284 -311 -236 -183 -229 -215 -207 0 0 0 0 0 -83 -80 -52 -50 -40 -48 -47 -64 -57 -42 -33 -46 -63
-183 -211 -369 -285 -278 -355 -368 -327 -295 -171 -204 -248 -237 -201 0 -180 0 0 0 -3 -129 -85 -33 -47 -48 -53 -55 -50 -34 -42 -64 -51
-221 -171 -178 -344 -301 -339 -372 -380 -329 -166 -240 -252 -231 -223 -237 -335 -212 -280 0 0 -35 -50 -58 -70 -50 -54 -46 -66 -38 -57 -40 -34
-259 -271 -152 -132 -392 -370 -378 -355 -387 -211 -261 -179 -259 -237 -201 -221 -224 -255 -201 -259 -90 -83 -104 -69 -68 -46 -40 -45 -23 -48 -40 -28
-348 -285 -258 -164 -102 -82 -74 -372 -296 -268 -193 -159 -228 -227 -211 -205 -209 -176 -243 -221 -139 -130 -113 -7 -68 -43 -25 -30 -30 -22 -24 -5
-426 -260 -275 -273 -171 -105 -70 -130 -281 -278 -225 -171 -153 -212 -204 -194 -186 -163 -183 -193 -120 -148 -112 -3 -80 -52 -21 -14 -16 -14 -6 -3
0 -258 -241 -212 -185 -129 -89 -79 -324 -302 -302 -210 -185 -132 -179 -176 -156 -154 -144 -199 -105 -129 -101 -30 0 -1 -15 -1 -4 0 -7 -17
0 -273 -209 -200 -174 -192 -125 -80 -84 -308 -300 -255 -202 -156 -150 -175 -142 -129 -129 -149 -110 -92 -102 -96 -40 0 -1 -16 0 0 0 -9
0 0 -203 -199 -182 -155 -156 -128 -114 -141 -203 -243 -206 -178 -177 -183 -129 -104 -101 -105 -102 -91 -80 -74 -62 0 -1 -1 -1 0 0 0
0 0 -200 -218 -149 -138 -167 -194 -170 -133 -182 -269 -180 -169 -223 -143 -93 -64 -62 -58 -62 -80 -65 -64 -55 -62 -7 -2 -2 0 -1 0
0 0 0 -244 -145 -160 -164 -180 -224 -246 -200 -204 -188 -179 -188 -92 -46 -16 -31 -33 -72 -72 -48 -61 -63 -56 -58 -7 -1 -7 0 -3
0 0 0 -265 -141 -145 -144 -160 -219 -200 -196 -135 -103 -123 -152 -66 -36 -25 -22 -18 -20 -36 -66 -54 -50 -62 -54 -72 -47 -9 -1 0
0 0 -104 -265 -152 -89 -114 -145 -175 -230 -217 -175 -126 -137 -175 -106 -58 -17 -43 -25 -30 -38 -32 -24 -53 -85 -88 -84 -45 -47 -16 -2
-420 -379 -368 -225 -95 -35 -65 -71 -142 -161 -181 -139 -218 -232 -206 -100 -38 -2 -22 -77 -28 -35 -3 -1 -13 -15 -125 -85 -64 -54 -39 -25
Wind_Speed
36 32 35 39 39 38 36 34 30 29 26 24 23 23 25 26 26 25 24 23 25 24 23 19 18 20 22 22 27 25 27 27
42 31 31 34 34 36 34 34 30 28 26 25 23 24 25 23 24 26 25 22 25 24 23 19 18 17 24 26 32 26 23 23
37 28 30 34 29 28 30 34 32 28 23 23 23 17 19 nan nan 29 25 21 21 19 23 21 19 16 21 25 27 22 17 16
32 33 24 30 24 26 28 27 26 23 21 20 18 18 nan nan nan nan 26 21 18 19 22 23 16 11 15 21 17 18 15 16
40 30 20 21 20 22 23 26 26 23 22 20 18 18 nan nan nan nan nan 18 14 17 17 15 12 10 13 13 12 14 13 15
48 42 35 21 23 23 26 28 25 23 21 21 19 17 nan nan nan nan nan nan 16 16 14 15 11 10 14 15 17 13 13 16
47 51 44 33 27 23 24 25 24 23 21 20 20 19 nan nan nan nan nan nan 14 14 14 14 12 10 12 17 19 13 15 13
58 54 50 45 32 25 21 24 24 22 21 20 20 21 nan nan nan nan nan nan nan 15 14 14 15 11 10 16 17 13 16 18
58 55 57 49 35 30 26 26 25 22 22 21 20 22 nan nan nan nan nan nan nan 14 15 nan 18 14 13 14 18 nan nan nan
53 54 55 48 37 30 33 26 26 25 23 22 22 22 23 nan 20 nan nan nan nan 15 nan nan nan 18 nan 12 14 nan nan nan
60 61 58 54 46 31 32 29 26 28 24 23 23 23 23 24 22 21 nan nan nan nan nan nan nan nan nan nan nan nan nan nan
nan 52 54 54 53 42 35 36 30 30 26 24 26 23 24 25 24 24 22 16 nan nan nan nan nan nan nan nan nan nan nan nan
nan 62 55 57 55 44 35 30 30 29 29 24 28 28 26 26 25 26 25 19 18 nan nan nan nan nan nan nan nan nan nan nan
nan 61 59 56 56 48 38 30 31 32 35 30 28 29 28 28 27 25 27 24 20 21 20 nan nan nan nan nan nan nan nan nan
nan nan 55 50 53 54 52 45 47 41 37 34 29 29 31 30 29 26 29 27 24 21 21 23 nan nan nan nan nan nan nan nan
nan nan 60 59 56 54 47 39 38 34 30 29 32 37 36 32 31 30 30 29 26 25 22 22 24 nan nan nan nan nan nan nan
nan nan nan 71 58 53 49 40 36 39 37 34 32 39 41 35 32 32 29 29 27 29 28 25 24 24 nan nan nan nan nan nan
nan nan nan 67 62 56 51 37 40 45 41 38 37 41 45 39 33 32 30 29 29 28 31 29 29 26 25 nan nan 25 nan nan
nan nan nan 57 58 58 55 46 43 43 47 44 39 46 49 40 36 32 32 30 30 30 31 29 31 29 30 nan nan nan nan nan
51 58 55 52 56 54 61 66 54 47 41 43 41 48 44 43 38 34 34 33 31 32 31 29 31 29 nan nan 24 nan nan nan
Wind_Direction
279 286 299 308 313 314 313 313 310 308 308 307 312 314 319 325 325 325 328 331 327 316 313 300 305 302 297 256 251 249 247 250
275 271 292 296 306 308 309 310 308 306 307 306 312 315 322 325 327 326 330 332 331 316 307 303 305 303 295 282 263 250 244 251
280 288 292 288 298 301 302 305 306 305 306 306 304 304 315 nan nan 330 333 331 326 315 309 312 306 289 290 282 272 248 235 239
274 285 291 290 287 283 282 291 294 297 301 304 305 305 nan nan nan nan 335 329 327 312 309 306 295 293 288 288 274 250 242 237
278 271 268 278 281 272 271 279 288 292 296 297 297 300 nan nan nan nan nan 319 311 305 293 285 291 299 288 266 285 257 242 239
272 272 272 256 258 270 272 280 282 286 293 295 294 294 nan nan nan nan nan nan 319 317 304 292 291 301 293 265 261 251 250 243
269 277 279 270 265 255 266 270 278 280 288 290 292 295 nan nan nan nan nan nan 314 316 306 299 294 299 288 275 266 246 257 250
273 273 279 287 272 266 255 262 267 275 278 285 290 291 nan nan nan nan nan nan nan 321 313 307 289 280 290 282 265 254 236 247
269 278 285 282 291 267 254 251 262 265 273 282 282 284 nan nan nan nan nan nan nan 305 302 nan 288 280 262 266 243 nan nan nan
262 269 276 282 282 269 257 246 253 256 263 270 280 279 286 nan 287 nan nan nan nan 307 nan nan nan 297 nan 273 256 nan nan nan
251 261 270 276 275 262 253 249 243 249 256 263 277 277 280 283 283 282 nan nan nan nan nan nan nan nan nan nan nan nan nan nan
nan 248 263 269 265 254 246 249 244 246 254 262 275 272 276 277 276 284 283 290 nan nan nan nan nan nan nan nan nan nan nan nan
nan 252 258 255 258 253 248 256 260 253 257 267 270 272 277 276 274 283 281 285 290 nan nan nan nan nan nan nan nan nan nan nan
nan 246 251 252 255 256 244 252 246 245 250 258 266 272 279 275 277 280 283 276 282 282 276 nan nan nan nan nan nan nan nan nan
nan nan 246 247 256 249 232 244 237 239 247 253 269 276 274 274 274 271 275 274 277 285 283 285 nan nan nan nan nan nan nan nan
nan nan 242 247 249 250 245 241 247 243 260 258 258 274 271 270 271 271 275 274 278 281 279 279 283 nan nan nan nan nan nan nan
nan nan nan 244 246 248 253 236 242 246 243 256 255 262 265 266 269 274 275 273 279 286 285 283 283 288 nan nan nan nan nan nan
nan nan nan 238 244 254 256 245 244 246 245 247 250 255 258 262 263 268 269 272 276 279 284 292 290 287 286 nan nan 302 nan nan
nan nan nan 241 236 247 252 250 235 251 263 253 250 250 250 258 262 263 266 272 270 271 279 280 282 286 284 nan nan nan nan nan
239 243 241 241 234 243 246 251 238 233 246 245 243 242 248 256 263 263 267 269 268 272 272 276 277 281 nan nan 290 nan nan nan